Gainesville, GA

11:05 AM EDT on August 24, 2016 (GMT -0400)
Gilmer Memorial

Weather History for KGVL - April, 2013

Change the Weather History Date:

Thursday, April 11, 2013

  Actual Average Record
Temperature  
Mean Temperature 70 °F 59 °F  
Max Temperature 80 °F 70 °F 86 °F (1930)
Min Temperature 60 °F 49 °F 29 °F (1937)
Degree Days  
Heating Degree Days 0 7  
Month to date heating degree days 75 86  
Since 1 July heating degree days 101 2938  
Cooling Degree Days 5 1  
Month to date cooling degree days 15 9  
Year to date cooling degree days 15 14  
Growing Degree Days 20 (Base 50)    
Moisture  
Dew Point 60 °F    
Average Humidity 69    
Maximum Humidity 87    
Minimum Humidity 50    
Precipitation  
Precipitation 1.86 in 0.13 in 1.86 in (2013)
Month to date precipitation 2.41 1.30  
Year to date precipitation 3.12 16.62  
Snow  
Snow 0.00 in - - ()
Month to date snowfall 0.0  
Since 1 July snowfall 0.0  
Snow Depth 0.00 in    
Sea Level Pressure  
Sea Level Pressure 29.81 in    
Wind  
Wind Speed 7 mph (SSW)    
Max Wind Speed 25 mph    
Max Gust Speed 37 mph    
Visibility 6 miles    
Events Fog , Rain , Thunderstorm    
T = Trace of Precipitation, MM = Missing Value Source: NWS Daily Summary

Daily Weather History Graph

Daily Weather History Graph

Search for Another Location

Airport or City:

Trip Planner

Search our weather history database for the weather conditions in past years. The results will help you decide how hot, cold, wet, or windy it might be!

Date:

Astronomy

Apr. 11, 2013 Rise Set
Actual Time 7:08 AM EDT 8:04 PM EDT
Civil Twilight 6:43 AM EDT 8:29 PM EDT
Nautical Twilight 6:12 AM EDT 9:00 PM EDT
Astronomical Twilight 5:41 AM EDT 9:31 PM EDT
Moon 7:43 AM EDT (4/11) 9:32 PM EDT (4/11)
Length of Visible Light 13h 46m
Length of Day
12h 55m
New Moon, 2% of the Moon is Illuminated
Apr 11
New Moon
Apr 18
First Quarter
Apr 25
Full
May 2
Last Quarter
May 9
New

Hourly Weather History & Observations

Time (EDT) Temp. Heat Index Dew Point Humidity Pressure Visibility Wind Dir Wind Speed Gust Speed Precip Events Conditions
12:53 AM 66.9 °F - 54.0 °F 63% 29.94 in 10.0 mi South 4.6 mph - N/A   Clear
1:53 AM 66.0 °F - 53.1 °F 63% 29.95 in 10.0 mi South 3.5 mph - N/A   Clear
2:53 AM 64.9 °F - 53.1 °F 65% 29.93 in 10.0 mi South 4.6 mph - N/A   Clear
3:53 AM 63.0 °F - 53.1 °F 70% 29.92 in 10.0 mi SE 5.8 mph - N/A   Clear
4:53 AM 62.1 °F - 54.0 °F 75% 29.92 in 10.0 mi South 5.8 mph - N/A   Clear
5:53 AM 60.1 °F - 54.0 °F 80% 29.93 in 10.0 mi SSE 3.5 mph - N/A   Clear
6:53 AM 60.1 °F - 55.0 °F 83% 29.94 in 10.0 mi South 5.8 mph - N/A   Mostly Cloudy
7:53 AM 60.1 °F - 55.9 °F 86% 29.96 in 10.0 mi South 4.6 mph - N/A   Mostly Cloudy
8:53 AM 62.1 °F - 57.9 °F 86% 29.96 in 10.0 mi Variable 5.8 mph - N/A   Partly Cloudy
9:53 AM 66.9 °F - 57.0 °F 70% 29.95 in 10.0 mi South 6.9 mph - N/A   Clear
10:53 AM 72.0 °F - 55.0 °F 55% 29.94 in 10.0 mi South 12.7 mph 18.4 mph N/A   Clear
11:53 AM 73.0 °F - 55.9 °F 55% 29.94 in 10.0 mi SW 9.2 mph - N/A   Overcast
1:53 PM 75.9 °F - 57.0 °F 52% 29.86 in 10.0 mi Variable 6.9 mph - N/A   Overcast
3:53 PM 75.9 °F - 59.0 °F 56% 29.78 in 10.0 mi South 5.8 mph - N/A   Overcast
4:53 PM 80.1 °F 80.9 °F 60.1 °F 50% 29.75 in 10.0 mi SSE 8.1 mph 16.1 mph N/A   Mostly Cloudy
5:53 PM 77.0 °F - 60.1 °F 56% 29.73 in 10.0 mi South 8.1 mph 18.4 mph N/A   Overcast
6:53 PM 75.0 °F - 62.1 °F 64% 29.72 in 10.0 mi SE 5.8 mph - 0.00 in   Scattered Clouds
7:53 PM 70.0 °F - 64.9 °F 84% 29.72 in 10.0 mi SE 10.4 mph - N/A   Overcast
8:53 PM 70.0 °F - 64.9 °F 84% 29.70 in 10.0 mi SE 8.1 mph - N/A   Mostly Cloudy
9:16 PM 69.8 °F - 66.2 °F 88% 29.74 in 10.0 mi SE 8.1 mph - N/A Thunderstorm Overcast
9:39 PM 69.8 °F - 66.2 °F 88% 29.73 in 5.0 mi SE 6.9 mph - 0.03 in Rain , Thunderstorm Light Thunderstorms and Rain
9:53 PM 69.1 °F - 66.9 °F 93% 29.69 in 4.0 mi SSE 8.1 mph - 0.07 in Rain , Thunderstorm Light Thunderstorms and Rain
10:03 PM 69.8 °F - 66.2 °F 88% 29.77 in 2.5 mi SW 23.0 mph 35.7 mph 0.11 in Rain , Thunderstorm Thunderstorms and Rain
10:05 PM 66.2 °F - 64.4 °F 94% 29.78 in 1.0 mi SW 23.0 mph 35.7 mph 0.30 in Rain , Thunderstorm Thunderstorms and Rain
10:07 PM 64.4 °F - 60.8 °F 88% 29.75 in 0.8 mi WSW 11.5 mph 35.7 mph 0.39 in Rain , Thunderstorm Heavy Thunderstorms and Rain
10:15 PM 64.4 °F - 60.8 °F 88% 29.74 in 0.5 mi SW 18.4 mph 36.8 mph 0.69 in Rain , Thunderstorm Heavy Thunderstorms and Rain
10:21 PM 64.4 °F - 60.8 °F 88% 29.76 in 1.2 mi SSW 10.4 mph 31.1 mph 0.70 in Rain , Thunderstorm Light Thunderstorms and Rain
10:23 PM 64.4 °F - 60.8 °F 88% 29.76 in 2.5 mi SSW 9.2 mph 28.8 mph 0.71 in Rain , Thunderstorm Light Thunderstorms and Rain
10:27 PM 64.4 °F - 60.8 °F 88% 29.75 in 3.0 mi South 15.0 mph 24.2 mph 0.74 in Rain , Thunderstorm Heavy Thunderstorms and Rain
10:35 PM 64.4 °F - 60.8 °F 88% 29.76 in 2.0 mi SSW 11.5 mph 24.2 mph 0.84 in Rain , Thunderstorm Heavy Thunderstorms and Rain
10:37 PM 64.4 °F - 60.8 °F 88% 29.75 in 1.5 mi SSW 9.2 mph 19.6 mph 0.89 in Rain , Thunderstorm Heavy Thunderstorms and Rain
10:45 PM 64.4 °F - 62.6 °F 94% 29.77 in 2.0 mi South 9.2 mph - 0.92 in Rain , Thunderstorm Thunderstorms and Rain
10:48 PM 64.4 °F - 60.8 °F 88% 29.77 in 3.0 mi SW 6.9 mph 16.1 mph 0.95 in Rain , Thunderstorm Heavy Thunderstorms and Rain
10:53 PM 64.0 °F - 61.0 °F 90% 29.73 in 2.5 mi WSW 10.4 mph 16.1 mph 0.97 in Rain , Thunderstorm Thunderstorms and Rain
11:02 PM 64.4 °F - 60.8 °F 88% 29.77 in 6.0 mi WNW 6.9 mph - 0.01 in Rain , Thunderstorm Light Rain
11:04 PM 64.4 °F - 60.8 °F 88% 29.77 in 6.0 mi WNW 5.8 mph - 0.01 in Rain , Thunderstorm Light Rain
11:31 PM 64.4 °F - 60.8 °F 88% 29.78 in 7.0 mi West 5.8 mph - 0.05 in Rain , Thunderstorm Rain
11:39 PM 64.4 °F - 60.8 °F 88% 29.81 in 4.0 mi West 11.5 mph - 0.12 in Rain Rain
11:41 PM 62.6 °F - 60.8 °F 94% 29.82 in 1.8 mi WSW 12.7 mph - 0.26 in Rain Heavy Rain
11:44 PM 62.6 °F - 60.8 °F 94% 29.82 in 1.0 mi West 12.7 mph 20.7 mph 0.42 in Rain Heavy Rain
11:50 PM 62.6 °F - 60.8 °F 94% 29.81 in 0.5 mi West 15.0 mph 28.8 mph 0.60 in Fog , Rain , Thunderstorm Heavy Thunderstorms and Rain
11:51 PM 63.0 °F - 61.0 °F 93% 29.77 in 0.8 mi West 15.0 mph 28.8 mph 0.61 in Rain , Thunderstorm Heavy Thunderstorms and Rain
11:55 PM 62.6 °F - 60.8 °F 94% 29.80 in 1.2 mi West 5.8 mph 28.8 mph 0.02 in Rain , Thunderstorm Heavy Thunderstorms and Rain
11:58 PM 62.6 °F - 60.8 °F 94% 29.80 in 2.0 mi Variable 6.9 mph 28.8 mph 0.03 in Rain , Thunderstorm Thunderstorms and Rain